Terminal Aerodrome Forecast
Issued by NWS

Home | Current Version | Previous Version | Text Only | Print | Product List | Glossary On
Versions: 1 2 3 4 5 6 7 8 9 10 11 12 13
000
FTUS45 KBOI 311856 RRA
TAFBKE
TAF
KBKE 311856Z 3119/0118 16013G20KT P6SM SCT100 BKN150
     FM312000 13007KT P6SM OVC100
     FM010100 29010KT P6SM OVC060
     FM011600 31015KT P6SM VCSH BKN040 OVC060=

USA.gov is the U.S. government's official web portal to all federal, state and local government web resources and services.